Current weather by "City, St" or "zip code"  
 
Advertise Here

Current Conditions: Washington Regional Airport, MO

Fair


37.0 F

Last Updated on Jan 20 2021, 11:15 am CST
Humidity: 60%
Wind Speed: S 5.8 mph
Barometer 30.24 in
Dewpoint: 24.8 F
Visibility: 10.00 mi
Precip: --
Heat Index: NA
Wind Chill: 32 F
Current conditions at:

Washington Regional Airport, MO (KFYG)

Lat: 38.5876 Lon: 90.9938

Local Radar Image active severe weather and emergency alerts image image weather storm and storm spotter reports image weather observation monitoring service image
Local
Radar
Active
Alerts
Storm Reports Obs
Monitoring

Sign-up For Email & Text Message Weather Alert Notification Services


Advertise Here

Observation History for Washington Regional Airport, MO


Time Wind
(mph)
Vis
(mi)
Weather Precip (in) Temperature (F) Relative
Humidity
Wind
Chill
(F)
Heat
Index
(F)
Pressure
Air Dwpt altimeter
(in)
sea level
(mb)
Rmks
11:15 am CST S 5.8 10.00 Fair -- 37.0 24.8 60% 32 NA 30.24 M
10:15 am CST S 9.2 10.00 Fair -- 36.0 23.0 60% 29 NA 30.31 M
9:15 am CST SE 6.9 10.00 Fair -- 32.0 23.0 69% 26 NA 30.34 M
8:15 am CST N 0.0 10.00 Fair -- 27.0 23.0 86% NA NA 30.35 M
7:15 am CST N 0.0 10.00 Fair -- 23.0 21.2 93% NA NA 30.33 M
6:15 am CST N 0.0 10.00 Fair -- 23.0 19.4 86% NA NA 30.34 M
5:15 am CST N 0.0 10.00 Fair -- 25.0 19.4 80% NA NA 30.35 M
3:55 am CST N 0.0 10.00 Fair -- 27.0 19.4 74% NA NA 30.36 M
3:15 am CST N 0.0 10.00 Fair -- 28.0 19.4 69% NA NA 30.37 M
2:15 am CST NW 5.8 10.00 Fair -- 28.0 19.4 69% 22 NA 30.39 M
1:15 am CST NW 6.9 10.00 Fair -- 28.0 19.4 69% 21 NA 30.38 M
12:15 am CST NW 6.9 10.00 A Few Clouds -- 32.0 21.2 64% 26 NA 30.37 M
11:15 pm CST NW 11.5 10.00 A Few Clouds -- 34.0 26.6 75% 26 NA 30.36 M
10:15 pm CST NW 11.5 10.00 Fair -- 37.0 26.6 65% 29 NA 30.34 M
9:15 pm CST NW 6.9 10.00 Partly Cloudy -- 36.0 26.6 70% 30 NA 30.34 M
8:15 pm CST N 0.0 10.00 Mostly Cloudy -- 34.0 32.0 93% NA NA 30.32 M
7:15 pm CST N 0.0 10.00 Mostly Cloudy -- 37.0 30.2 75% NA NA 30.32 M
6:15 pm CST N 0.0 10.00 A Few Clouds -- 37.0 28.4 70% NA NA 30.33 M
5:15 pm CST N 0.0 10.00 Fair -- 37.0 30.2 75% NA NA 30.31 M
4:15 pm CST W 5.8 10.00 Fair -- 39.0 30.2 70% 35 NA 30.31 M
3:15 pm CST W 10.4 10.00 Fair -- 39.0 30.2 70% 32 NA 30.31 M
2:15 pm CST W 15.0 9.00 Mostly Cloudy -- 39.0 33.8 81% 31 NA 30.30 M
1:15 pm CST W 10.4 G 19.6 9.00 Overcast -- 36.0 32.0 87% 28 NA 30.31 M
12:15 pm CST W 5.8 9.00 Overcast -- 37.0 32.0 81% 32 NA 30.31 M

Regional Weather Observation


St. Louis, Spirit Of St. Louis Airport, MO (KSUS)

Fair
40.0 F

St. Charles, St. Charles County Smartt Airport, MO (KSET)

Fair
39.0 F

St. Louis Lambert International Airport, MO (KSTL)

Partly Cloudy
40.0 F

Rolla / Vichy, Rolla National Airport, MO (KVIH)

Fair
43.0 F

Mexico Memorial Airport, MO (KMYJ)

Fair
37.0 F

St. Louis Downtown Airport, IL (KCPS)

Fair
38.0 F